News / 

AP-UT--SLC-UT 2nd Weather Roundup, UT

By The Associated Press | Posted - Mar. 10, 2014 at 9:21 a.m.



This archived news story is available only for your personal, non-commercial use. Information in the story may be outdated or superseded by additional information. Reading or replaying the story in its archived form does not constitute a republication of the story.

AP-UT--SLC-UT 2nd Weather Roundup

801

ASUS45 KSLC 101510

RWRUT

UTAH REGIONAL WEATHER ROUNDUP

NATIONAL WEATHER SERVICE SALT LAKE CITY UT

900 AM MDT MON MAR 10 2014

UTZ001>011-023>025-101600-

NORTHERN UTAH

CITY SKY/WX TMP DP RH WIND PRES REMARKS

DUGWAY CLOUDY 50 21 31 S12 29.99R

HILL AFB CLOUDY 49 12 23 SE10 29.97F

LOGAN SUNNY 41 37 86 CALM 29.94F

OGDEN CLOUDY 48 26 42 S12 29.96F

PROVO AIRPORT CLOUDY 45 28 53 E8 30.02F

SALT LAKE CITY CLOUDY 57 20 23 S20G25 29.97R

VERNAL PTSUNNY 37 26 64 CALM 30.08S

WENDOVER CLOUDY 37 28 70 N3 29.96F

HEBER CITY CLOUDY 34 27 75 CALM 30.06S

WEST JORDAN CLOUDY 48 27 43 S8 30.00R

$$

UTZ012>022-026-027-101600-

SOUTHERN UTAH

CITY SKY/WX TMP DP RH WIND PRES REMARKS

BRYCE CANYON PTSUNNY 31 21 66 CALM 30.20S

CEDAR CITY CLOUDY 47 14 26 S8 30.09F

MILFORD CLOUDY 42 18 37 SW16 30.07R

MOAB/CYNLANDS SUNNY 43 28 55 SE7 30.10S

PRICE PTSUNNY 39 21 48 CALM 30.12R

ST GEORGE PTSUNNY 45 23 42 CALM 30.14R

$$

REGIONAL REPORTS COLORADO/ARIZONA

CITY SKY/WX TMP DP RH WIND PRES REMARKS

CRAIG, CO SUNNY 31 24 75 CALM 30.11F

GRAND JUNCTION MOSUNNY 37 23 56 SE7 30.13F WCI 32

RIFLE MOSUNNY 31 23 72 NE3 30.18F

MONTROSE MOSUNNY 35 23 61 S5 30.19F WCI 31

CORTEZ SUNNY 33 23 66 CALM 30.20R

PAGE, AZ CLOUDY 47 20 34 CALM 30.15R

GRAND CANYON PTSUNNY 28 17 63 CALM 30.23S

KINGMAN SUNNY 48 19 31 SE6 30.13R

FLAGSTAFF MOSUNNY 33 22 63 CALM 30.24R

$$

REGIONAL REPORTS NEVADA/IDAHO/WYOMING

CITY SKY/WX TMP DP RH WIND PRES REMARKS

LAS VEGAS, NV PTSUNNY 56 22 26 CALM 30.02R

ELY CLOUDY 44 16 32 S14 30.06F

ELKO CLOUDY 43 27 53 CALM 29.96S

POCATELLO, ID MOSUNNY 53 24 32 S20 29.87F

BURLEY CLOUDY 50 29 44 W10 29.88R

EVANSTON, WY PTSUNNY 37 19 48 SW14 30.02R WCI 28

ROCK SPRINGS CLOUDY 36 22 56 SE5 30.02F WCI 32

$$

Delivered by Weather Underground Inc. Mon Mar 10 2014 11:10AM EDT

Copyright © The Associated Press. All rights reserved. This material may not be published, broadcast, rewritten or redistributed.

The Associated Press

    SIGN UP FOR THE KSL.COM NEWSLETTER

    Catch up on the top news and features from KSL.com, sent weekly.
    By subscribing, you acknowledge and agree to KSL.com's Terms of Use and Privacy Policy.

    KSL Weather Forecast